Location: Clarion
(42.7316°N, 93.7330°W)
Time: 08:11:52
(UTC+00:00)

Cosmos 2219 Rocket - Pass Details

Date: 22 April 2026
Orbit: 826 x 846 km, 71.0° (Epoch: 17 May)

Event Time Altitude Azimuth Distance (km) Brightness Sun altitude
Rises 09:46:02 0° 331° (NNW) 3,393 5.4 -16.6°
Reaches altitude 10° 09:48:31 10° 326° (NNW) 2,458 4.6 -16.3°
Maximum altitude 09:53:58 52° 252° (WSW) 1,033 2.3 -15.4°
Drops below altitude 10° 09:59:25 10° 177° (S) 2,453 4.3 -14.6°
Sets 10:01:54 0° 172° (S) 3,386 5.1 -14.2°
